Weather Roundup
Issued by NWS

Home | Current Version | Previous Version | Graphics & Text | Print | Product List | Glossary Off
Versions: 1 2 3 4 5 6 7 8 9 10 11 12 13 14 15 16 17 18 19 20 21 22 23 24 25 26 27 28 29 30 31 32 33 34 35 36 37 38 39 40 41 42 43 44 45 46 47 48 49 50

000
NZUS93 KARX 291959
HRRWXR

CURRENT HOURLY OBSERVATIONS ACROSS
MUCH OF THE UPPER MISSISSIPPI VALLEY
NATIONAL WEATHER SERVICE LA CROSSE WI
300 PM CDT TUE JUL 29 2014


...SOUTHEAST MINNESOTA...


CITY           SKY/WX    TMP DP  RH WIND       PRES   REMARKS
ROCHESTER      MOSUNNY   75  56  51 W9        30.11F
ROCHESTER/MAYO MOCLDY    75  51  42 W15       30.10F
WINONA         SUNNY     77  54  44 NW10      30.06F
AUSTIN         PTSUNNY   73  54  49 NW12      30.12S
ALBERT LEA     MOSUNNY   75  54  46 NW6       30.13F
DODGE CENTER   MOSUNNY   77  55  47 NW8       30.12F
PRESTON        SUNNY     73  62  67 NW10      30.10F
OWATONNA       MOSUNNY   75  54  46 NW10      30.12F
FARIBAULT      PTSUNNY   79  50  36 W9        30.12S
$$

...ELSEWHERE IN MINNESOTA...


CITY           SKY/WX    TMP DP  RH WIND       PRES   REMARKS
MINNEAPOLIS    PTSUNNY   78  54  43 W10G17    30.08F
INTNL FALLS    PTSUNNY   76  55  48 NW10      30.04F
DULUTH         MOSUNNY   77  53  43 NW15      30.02F
RED WING       SUNNY     82  52  34 W9        30.06F
REDWOOD FALLS  SUNNY     77  52  41 N9        30.14F
MANKATO        MOSUNNY   75  52  43 NW15      30.13F
WORTHINGTON    MOSUNNY   72  52  49 NW7       30.19F
FAIRMONT       PTSUNNY   75  48  38 NW12      30.15F
$$

...SOUTHWEST WISCONSIN...


CITY           SKY/WX    TMP DP  RH WIND       PRES   REMARKS
LA CROSSE      SUNNY     82  55  39 NW12      30.04F
PRAIRIE DU CHI MOSUNNY   80  48  32 W8G22     30.06F
BOSCOBEL       MOSUNNY   82  56  40 W9        30.06S
LONE ROCK      NOT AVBL
PLATTEVILLE    MOSUNNY   77  54  44 NW13      30.08S
FORT MC COY    MOSUNNY   79  54  42 N8        30.05F
VIROQUA        MOCLDY    76  57  50 NW10      30.08S
WIS DELLS      PTSUNNY   78  50  37 NW9G17    30.05S
$$

...ELSEWHERE IN WISCONSIN...


CITY           SKY/WX    TMP DP  RH WIND       PRES   REMARKS
MILWAUKEE      PTSUNNY   77  52  41 W12       30.00S
MADISON        PTSUNNY   78  54  43 NW10      30.03S
GREEN BAY      PTSUNNY   73  56  54 NE12      29.98S
EAU CLAIRE     PTSUNNY   71  56  58 W12G20    30.04F
BLACK RVR FLS  MOCLDY    80  53  38 W9G16     30.04F
MEDFORD        MOSUNNY   72  56  58 W10       30.03F
WAUSAU         MOSUNNY   76  53  44 NW16G23   29.99F
WIS RAPIDS     PTSUNNY   78  53  41 W13       30.03F
MARSHFIELD     MOSUNNY   77  54  44 W9        30.02F
RICE LAKE      MOSUNNY   74  57  54 W8        30.07F
$$

...NORTHEAST IOWA...


CITY           SKY/WX    TMP DP  RH WIND       PRES   REMARKS
WATERLOO       MOSUNNY   78  56  46 NW13G21   30.10F
DUBUQUE        MOSUNNY   77  57  50 NW13      30.09S
DECORAH        MOSUNNY   75  57  53 VRB6G14   30.09S
MASON CITY     SUNNY     77  55  46 NW12      30.14F
CHARLES CITY   MOSUNNY   75  55  50 NW10      30.13S
OELWEIN        MOSUNNY   75  57  53 W10       30.11F
$$

...ELSEWHERE IN IOWA...


CITY           SKY/WX    TMP DP  RH WIND       PRES   REMARKS
DES MOINES     MOSUNNY   79  53  40 W12       30.14F
IOWA CITY      MOSUNNY   79  57  46 NW13      30.11F
FORT DODGE     PTSUNNY   73  55  53 N5        30.16F
MARSHALLTOWN   MOSUNNY   76  58  53 W8        30.13S
CEDAR RAPIDS   MOSUNNY   76  57  51 NW9       30.10F
$$

...NORTHERN ILLINOIS...


CITY           SKY/WX    TMP DP  RH WIND       PRES   REMARKS
CHICAGO-OHARE  PTSUNNY   79  50  36 NW16      30.01S
DUPAGE         CLOUDY    78  54  43 NW14      30.02S
CHICAGO-MIDWAY PTSUNNY   79  54  41 NW13G21   30.01S
MOLINE           N/A     79  56  45 W14G20    30.08F
ROCKFORD       PTSUNNY   79  58  48 W9        30.05S
STERLING       SUNNY     81  61  50 NW13G18   30.06F
PEORIA         MOSUNNY   79  55  43 W12       30.09F
$$

NOTE: "FAIR" INDICATES FEW OR NO CLOUDS BELOW 12,000 FEET WITH NO
SIGNIFICANT WEATHER AND/OR OBSTRUCTIONS TO VISIBILITY. WIND
SPEEDS ARE IN MILES-PER-HOUR.



USA.gov is the U.S. government's official web portal to all federal, state and local government web resources and services.